HELLAS-SAT 3 (42814 NORAD) Tracking and Keplerian Element Data

This shows tracking and keplerian element data for the satellite.

Feedback or suggestion? Click here.




ElementValue
Catalog42814
NameHELLAS-SAT 3
Epoch Orbit2539
Epoch Day159.95989882
Epoch Year2024
RAAN30.6405
Inclination0.0684
Eccentricity0.000488
Argument of Perigee13.6416
Mean Anonmoly237.098
Mean Motion1.00273003
Decay Rate1.52E-06
L11 42814U 17040A 24159.95989882 .00000152 00000+0 00000+0 0 9996
L22 42814 0.0684 30.6405 0004880 13.6416 237.0980 1.00273003 25392



Live tracking and technical data element details for HELLAS-SAT 3 (NORAD 42814). HELLAS-SAT 3 can be tracked NOW for your location showing map with azimuth and elevation plus other details from your city location.







IsCatalogInMostPopularTable: catalog: 42814, numindb: 657
Update: records affected: 1



GetName: 42814 HELLAS-SAT 3

Hit Count: updated at: Fri, 14 Jun 2024 17:59:47 GMT